Location: Domont
(49.0278°N, 2.3264°E)
Time: 13:27:30
(UTC+00:00)

Timation 2 Rocket - Pass Details

Date: 16 October 2021
Orbit: 904 x 1077 km, 70.0° (Epoch: 07 December)

Event Time Altitude Azimuth Distance (km) Brightness Sun altitude
Rises 17:46:24 0° 328° (NNW) 3,883 7.5 -8.6°
Reaches altitude 10° 17:49:03 10° 328° (NNW) 2,925 6.9 -9.0°
Maximum altitude 17:55:57 78° 244° (WSW) 1,097 4.4 -10.1°
Drops below altitude 10° 18:02:41 10° 159° (SSE) 2,853 6.2 -11.2°
Sets 18:05:15 0° 158° (SSE) 3,782 6.9 -11.7°
